Time,TemperatureF,DewpointF,PressureIn,WindDirection,WindDirectionDegrees,WindSpeedMPH,WindSpeedGustMPH,Humidity,HourlyPrecipIn,Conditions,Clouds,dailyrainin,SoftwareType,DateUTC
2013-10-21 00:00:00,40.3,28.3,30.01,ESE,117,0.0,0.0,62,0.00,,,0.00,Wunderground v.1.15,2013-10-21 06:00:00,
2013-10-21 00:09:00,40.1,27.7,30.00,ENE,60,0.0,0.0,61,0.00,,,0.00,Wunderground v.1.15,2013-10-21 06:09:00,
2013-10-21 00:14:00,40.1,27.7,30.00,South,184,0.0,3.0,61,0.00,,,0.00,Wunderground v.1.15,2013-10-21 06:14:00,
2013-10-21 00:19:00,40.0,28.0,30.00,SE,142,0.0,0.0,62,0.00,,,0.00,Wunderground v.1.15,2013-10-21 06:19:00,
2013-10-21 00:24:00,39.7,28.1,30.01,NE,38,0.0,0.0,63,0.00,,,0.00,Wunderground v.1.15,2013-10-21 06:24:00,
2013-10-21 00:29:00,39.6,28.0,30.01,SW,224,1.0,3.0,63,0.00,,,0.00,Wunderground v.1.15,2013-10-21 06:29:00,
2013-10-21 00:39:00,39.0,28.2,30.01,SSW,211,1.0,1.0,65,0.00,,,0.00,Wunderground v.1.15,2013-10-21 06:39:00,
2013-10-21 00:44:00,38.8,28.0,30.01,SSW,211,1.0,1.0,65,0.00,,,0.00,Wunderground v.1.15,2013-10-21 06:44:00,
2013-10-21 00:49:00,38.6,28.2,30.01,WSW,257,1.0,1.0,66,0.00,,,0.00,Wunderground v.1.15,2013-10-21 06:49:00,
2013-10-21 00:54:00,38.4,28.4,30.02,WNW,288,1.0,1.0,67,0.00,,,0.00,Wunderground v.1.15,2013-10-21 06:54:00,
2013-10-21 01:00:00,38.3,28.7,30.02,SSW,211,1.0,1.0,68,0.00,,,0.00,Wunderground v.1.15,2013-10-21 07:00:00,
2013-10-21 01:09:00,38.1,28.5,30.01,East,96,2.0,2.0,68,0.00,,,0.00,Wunderground v.1.15,2013-10-21 07:09:00,
2013-10-21 01:14:00,38.0,28.7,30.02,West,268,2.0,2.0,69,0.00,,,0.00,Wunderground v.1.15,2013-10-21 07:14:00,
2013-10-21 01:19:00,37.9,28.6,30.02,West,259,1.0,6.0,69,0.00,,,0.00,Wunderground v.1.15,2013-10-21 07:19:00,
2013-10-21 01:24:00,37.9,29.0,30.02,SSW,206,1.0,6.0,70,0.00,,,0.00,Wunderground v.1.15,2013-10-21 07:24:00,
2013-10-21 01:29:00,37.7,28.8,30.01,ENE,69,1.0,1.0,70,0.00,,,0.00,Wunderground v.1.15,2013-10-21 07:29:00,
2013-10-21 01:39:00,37.5,28.9,30.01,South,184,1.0,1.0,71,0.00,,,0.00,Wunderground v.1.15,2013-10-21 07:39:00,
2013-10-21 01:44:00,37.5,28.9,30.02,North,355,1.0,1.0,71,0.00,,,0.00,Wunderground v.1.15,2013-10-21 07:44:00,
2013-10-21 01:54:00,37.4,28.9,30.02,SE,141,0.0,1.0,71,0.00,,,0.00,Wunderground v.1.15,2013-10-21 07:54:00,
2013-10-21 02:00:00,37.3,28.8,30.01,South,169,0.0,0.0,71,0.00,,,0.00,Wunderground v.1.15,2013-10-21 08:00:00,
2013-10-21 02:09:00,37.3,28.8,30.02,SSE,153,0.0,0.0,71,0.00,,,0.00,Wunderground v.1.15,2013-10-21 08:09:00,
2013-10-21 02:14:00,37.3,28.8,30.02,NE,53,0.0,0.0,71,0.00,,,0.00,Wunderground v.1.15,2013-10-21 08:14:00,
2013-10-21 02:19:00,37.3,28.8,30.02,SE,131,0.0,2.0,71,0.00,,,0.00,Wunderground v.1.15,2013-10-21 08:19:00,
2013-10-21 02:29:00,37.2,29.0,30.01,SE,145,0.0,0.0,72,0.00,,,0.00,Wunderground v.1.15,2013-10-21 08:29:00,
2013-10-21 02:39:00,37.0,29.1,30.01,West,259,0.0,0.0,73,0.00,,,0.00,Wunderground v.1.15,2013-10-21 08:39:00,
2013-10-21 02:44:00,36.9,29.1,30.02,South,191,1.0,1.0,73,0.00,,,0.00,Wunderground v.1.15,2013-10-21 08:44:00,
2013-10-21 02:49:00,36.7,29.2,30.02,East,95,1.0,1.0,74,0.00,,,0.00,Wunderground v.1.15,2013-10-21 08:49:00,
2013-10-21 02:54:00,36.6,29.1,30.02,SE,143,1.0,5.0,74,0.00,,,0.00,Wunderground v.1.15,2013-10-21 08:54:00,
2013-10-21 03:00:00,36.5,29.0,30.02,WSW,243,1.0,1.0,74,0.00,,,0.00,Wunderground v.1.15,2013-10-21 09:00:00,
2013-10-21 03:09:00,36.4,29.2,30.02,SW,217,0.0,0.0,75,0.00,,,0.00,Wunderground v.1.15,2013-10-21 09:09:00,
2013-10-21 03:14:00,36.3,29.1,30.02,ENE,76,0.0,0.0,75,0.00,,,0.00,Wunderground v.1.15,2013-10-21 09:14:00,
2013-10-21 03:19:00,36.2,29.0,30.02,ESE,109,1.0,1.0,75,0.00,,,0.00,Wunderground v.1.15,2013-10-21 09:19:00,
2013-10-21 03:24:00,36.1,28.9,30.02,East,88,0.0,1.0,75,0.00,,,0.00,Wunderground v.1.15,2013-10-21 09:24:00,
2013-10-21 03:29:00,36.1,28.9,30.02,ENE,63,0.0,0.0,75,0.00,,,0.00,Wunderground v.1.15,2013-10-21 09:29:00,
2013-10-21 03:34:00,36.0,28.8,30.02,ENE,78,0.0,0.0,75,0.00,,,0.00,Wunderground v.1.15,2013-10-21 09:34:00,
2013-10-21 03:39:00,36.0,29.2,30.02,ESE,104,0.0,0.0,76,0.00,,,0.00,Wunderground v.1.15,2013-10-21 09:39:00,
2013-10-21 03:44:00,35.9,29.1,30.02,East,96,0.0,0.0,76,0.00,,,0.00,Wunderground v.1.15,2013-10-21 09:44:00,
2013-10-21 03:49:00,35.7,28.9,30.02,SE,140,0.0,0.0,76,0.00,,,0.00,Wunderground v.1.15,2013-10-21 09:49:00,
2013-10-21 03:54:00,35.5,29.0,30.03,ENE,67,0.0,0.0,77,0.00,,,0.00,Wunderground v.1.15,2013-10-21 09:54:00,
2013-10-21 03:59:00,35.3,28.8,30.02,East,88,0.0,0.0,77,0.00,,,0.00,Wunderground v.1.15,2013-10-21 09:59:00,
2013-10-21 04:09:00,34.8,28.6,30.02,ESE,105,0.0,1.0,78,0.00,,,0.00,Wunderground v.1.15,2013-10-21 10:09:00,
2013-10-21 04:19:00,34.4,28.2,30.03,ESE,103,0.0,0.0,78,0.00,,,0.00,Wunderground v.1.15,2013-10-21 10:19:00,
2013-10-21 04:24:00,34.3,28.5,30.02,ENE,75,0.0,1.0,79,0.00,,,0.00,Wunderground v.1.15,2013-10-21 10:24:00,
2013-10-21 04:29:00,34.2,28.4,30.02,East,79,0.0,0.0,79,0.00,,,0.00,Wunderground v.1.15,2013-10-21 10:29:00,
2013-10-21 04:34:00,34.1,28.3,30.02,SSE,166,0.0,0.0,79,0.00,,,0.00,Wunderground v.1.15,2013-10-21 10:34:00,
2013-10-21 04:39:00,33.9,28.1,30.02,ESE,113,0.0,0.0,79,0.00,,,0.00,Wunderground v.1.15,2013-10-21 10:39:00,
2013-10-21 04:49:00,33.3,27.8,30.02,NE,55,0.0,0.0,80,0.00,,,0.00,Wunderground v.1.15,2013-10-21 10:49:00,
2013-10-21 04:54:00,32.9,27.7,30.02,NE,55,0.0,0.0,81,0.00,,,0.00,Wunderground v.1.15,2013-10-21 10:54:00,
2013-10-21 05:00:00,32.5,27.3,30.03,NE,55,0.0,0.0,81,0.00,,,0.00,Wunderground v.1.15,2013-10-21 11:00:00,
2013-10-21 05:09:00,31.9,27.0,30.03,NE,55,0.0,0.0,82,0.00,,,0.00,Wunderground v.1.15,2013-10-21 11:09:00,
2013-10-21 05:18:00,31.6,27.0,30.03,NE,55,0.0,0.0,83,0.00,,,0.00,Wunderground v.1.15,2013-10-21 11:18:00,
2013-10-21 05:23:00,31.6,27.0,30.03,NE,55,0.0,0.0,83,0.00,,,0.00,Wunderground v.1.15,2013-10-21 11:23:00,
2013-10-21 05:33:00,31.5,26.9,30.02,NE,55,0.0,0.0,83,0.00,,,0.00,Wunderground v.1.15,2013-10-21 11:33:00,
2013-10-21 05:38:00,31.2,26.6,30.03,NE,55,0.0,0.0,83,0.00,,,0.00,Wunderground v.1.15,2013-10-21 11:38:00,
2013-10-21 05:43:00,31.1,26.8,30.03,NE,55,0.0,0.0,84,0.00,,,0.00,Wunderground v.1.15,2013-10-21 11:43:00,
2013-10-21 05:48:00,31.0,26.7,30.03,NE,55,0.0,0.0,84,0.00,,,0.00,Wunderground v.1.15,2013-10-21 11:48:00,
2013-10-21 05:53:00,31.0,26.7,30.03,NE,55,0.0,0.0,84,0.00,,,0.00,Wunderground v.1.15,2013-10-21 11:53:00,
2013-10-21 05:59:00,30.8,26.5,30.03,NE,55,0.0,0.0,84,0.00,,,0.00,Wunderground v.1.15,2013-10-21 11:59:00,
2013-10-21 06:08:00,30.2,26.2,30.03,NE,55,0.0,0.0,85,0.00,,,0.00,Wunderground v.1.15,2013-10-21 12:08:00,
2013-10-21 06:13:00,29.9,25.9,30.04,NE,55,0.0,0.0,85,0.00,,,0.00,Wunderground v.1.15,2013-10-21 12:13:00,
2013-10-21 06:18:00,29.8,25.8,30.04,NE,55,0.0,0.0,85,0.00,,,0.00,Wunderground v.1.15,2013-10-21 12:18:00,
2013-10-21 06:23:00,29.6,25.9,30.04,NE,55,0.0,0.0,86,0.00,,,0.00,Wunderground v.1.15,2013-10-21 12:23:00,
2013-10-21 06:28:00,29.4,25.7,30.04,NE,55,0.0,0.0,86,0.00,,,0.00,Wunderground v.1.15,2013-10-21 12:28:00,
2013-10-21 06:38:00,29.5,25.8,30.05,NE,56,0.0,0.0,86,0.00,,,0.00,Wunderground v.1.15,2013-10-21 12:38:00,
2013-10-21 06:43:00,29.6,25.9,30.05,NE,56,0.0,0.0,86,0.00,,,0.00,Wunderground v.1.15,2013-10-21 12:43:00,
2013-10-21 06:48:00,29.6,25.9,30.05,NE,56,0.0,0.0,86,0.00,,,0.00,Wunderground v.1.15,2013-10-21 12:48:00,
2013-10-21 06:53:00,29.4,25.7,30.05,NE,56,0.0,0.0,86,0.00,,,0.00,Wunderground v.1.15,2013-10-21 12:53:00,
2013-10-21 06:59:00,29.3,25.6,30.05,ENE,61,0.0,0.0,86,0.00,,,0.00,Wunderground v.1.15,2013-10-21 12:59:00,
2013-10-21 07:08:00,29.2,25.5,30.05,ENE,61,0.0,0.0,86,0.00,,,0.00,Wunderground v.1.15,2013-10-21 13:08:00,
2013-10-21 07:18:00,29.1,25.4,30.06,ENE,61,0.0,0.0,86,0.00,,,0.00,Wunderground v.1.15,2013-10-21 13:18:00,
2013-10-21 07:23:00,29.0,25.6,30.06,ENE,61,0.0,0.0,87,0.00,,,0.00,Wunderground v.1.15,2013-10-21 13:23:00,
2013-10-21 07:28:00,28.9,25.5,30.06,ENE,61,0.0,0.0,87,0.00,,,0.00,Wunderground v.1.15,2013-10-21 13:28:00,
2013-10-21 07:38:00,28.8,25.4,30.06,ENE,61,0.0,0.0,87,0.00,,,0.00,Wunderground v.1.15,2013-10-21 13:38:00,
2013-10-21 07:43:00,28.9,25.5,30.07,ENE,61,0.0,0.0,87,0.00,,,0.00,Wunderground v.1.15,2013-10-21 13:43:00,
2013-10-21 07:53:00,29.0,25.6,30.07,ENE,66,0.0,0.0,87,0.00,,,0.00,Wunderground v.1.15,2013-10-21 13:53:00,
2013-10-21 07:59:00,29.0,25.3,30.07,ENE,66,0.0,0.0,86,0.00,,,0.00,Wunderground v.1.15,2013-10-21 13:59:00,
2013-10-21 08:08:00,29.0,25.3,30.07,ENE,66,0.0,0.0,86,0.00,,,0.00,Wunderground v.1.15,2013-10-21 14:08:00,
2013-10-21 08:13:00,29.1,25.4,30.07,ENE,66,0.0,0.0,86,0.00,,,0.00,Wunderground v.1.15,2013-10-21 14:13:00,
2013-10-21 08:18:00,29.1,25.4,30.07,ENE,67,0.0,0.0,86,0.00,,,0.00,Wunderground v.1.15,2013-10-21 14:18:00,
2013-10-21 08:23:00,29.2,25.5,30.08,ENE,66,0.0,0.0,86,0.00,,,0.00,Wunderground v.1.15,2013-10-21 14:23:00,
2013-10-21 08:28:00,29.3,25.6,30.08,ENE,66,0.0,0.0,86,0.00,,,0.00,Wunderground v.1.15,2013-10-21 14:28:00,
2013-10-21 08:38:00,29.3,25.6,30.08,ENE,66,0.0,0.0,86,0.00,,,0.00,Wunderground v.1.15,2013-10-21 14:38:00,
2013-10-21 08:43:00,29.4,25.4,30.08,ENE,67,0.0,0.0,85,0.00,,,0.00,Wunderground v.1.15,2013-10-21 14:43:00,
2013-10-21 08:48:00,29.6,25.6,30.08,ENE,67,0.0,0.0,85,0.00,,,0.00,Wunderground v.1.15,2013-10-21 14:48:00,
2013-10-21 08:53:00,29.9,25.9,30.08,ENE,67,0.0,0.0,85,0.00,,,0.00,Wunderground v.1.15,2013-10-21 14:53:00,
2013-10-21 08:59:00,30.5,26.5,30.08,ENE,67,0.0,0.0,85,0.00,,,0.00,Wunderground v.1.15,2013-10-21 14:59:00,
2013-10-21 09:08:00,32.1,27.5,30.08,ENE,67,0.0,0.0,83,0.00,,,0.00,Wunderground v.1.15,2013-10-21 15:08:00,
2013-10-21 09:13:00,33.0,27.8,30.08,ENE,66,0.0,0.0,81,0.00,,,0.00,Wunderground v.1.15,2013-10-21 15:13:00,
2013-10-21 09:18:00,33.4,28.2,30.08,ENE,67,0.0,0.0,81,0.00,,,0.00,Wunderground v.1.15,2013-10-21 15:18:00,
2013-10-21 09:23:00,34.5,28.3,30.08,ENE,67,0.0,0.0,78,0.00,,,0.00,Wunderground v.1.15,2013-10-21 15:23:00,
2013-10-21 09:29:00,34.9,28.7,30.08,ENE,67,0.0,0.0,78,0.00,,,0.00,Wunderground v.1.15,2013-10-21 15:29:00,
2013-10-21 09:38:00,36.3,29.5,30.08,ENE,67,0.0,0.0,76,0.00,,,0.00,Wunderground v.1.15,2013-10-21 15:38:00,
2013-10-21 09:43:00,37.8,29.9,30.08,ENE,67,0.0,0.0,73,0.00,,,0.00,Wunderground v.1.15,2013-10-21 15:43:00,
2013-10-21 09:48:00,39.8,31.2,30.08,ENE,67,0.0,0.0,71,0.00,,,0.00,Wunderground v.1.15,2013-10-21 15:48:00,
2013-10-21 09:53:00,41.2,29.5,30.08,NNW,337,0.0,1.0,63,0.00,,,0.00,Wunderground v.1.15,2013-10-21 15:53:00,
2013-10-21 09:59:00,41.4,28.9,30.08,NNW,334,0.0,2.0,61,0.00,,,0.00,Wunderground v.1.15,2013-10-21 15:59:00,
2013-10-21 10:08:00,41.9,28.6,30.07,NNW,338,3.0,3.0,59,0.00,,,0.00,Wunderground v.1.15,2013-10-21 16:08:00,
2013-10-21 10:18:00,42.4,29.1,30.07,NNW,340,2.0,3.0,59,0.00,,,0.00,Wunderground v.1.15,2013-10-21 16:18:00,
2013-10-21 10:23:00,43.5,29.7,30.07,NW,313,1.0,3.0,58,0.00,,,0.00,Wunderground v.1.15,2013-10-21 16:23:00,
2013-10-21 10:28:00,43.8,29.1,30.07,WNW,302,1.0,1.0,56,0.00,,,0.00,Wunderground v.1.15,2013-10-21 16:28:00,
2013-10-21 10:38:00,44.2,29.5,30.07,NNE,18,2.0,2.0,56,0.00,,,0.00,Wunderground v.1.15,2013-10-21 16:38:00,
2013-10-21 10:43:00,44.6,29.0,30.07,NNW,345,2.0,2.0,54,0.00,,,0.00,Wunderground v.1.15,2013-10-21 16:43:00,
2013-10-21 10:53:00,45.5,29.8,30.07,SSW,209,1.0,1.0,54,0.00,,,0.00,Wunderground v.1.15,2013-10-21 16:53:00,
2013-10-21 10:59:00,45.3,28.7,30.07,NNW,331,1.0,1.0,52,0.00,,,0.00,Wunderground v.1.15,2013-10-21 16:59:00,
2013-10-21 11:08:00,45.0,28.4,30.07,NW,323,3.0,3.0,52,0.00,,,0.00,Wunderground v.1.15,2013-10-21 17:08:00,
2013-10-21 11:13:00,45.7,28.6,30.07,WNW,300,3.0,3.0,51,0.00,,,0.00,Wunderground v.1.15,2013-10-21 17:13:00,
2013-10-21 11:18:00,45.5,28.4,30.08,NNW,342,3.0,3.0,51,0.00,,,0.00,Wunderground v.1.15,2013-10-21 17:18:00,
2013-10-21 11:28:00,46.0,27.9,30.08,NW,326,2.0,2.0,49,0.00,,,0.00,Wunderground v.1.15,2013-10-21 17:28:00,
2013-10-21 11:38:00,46.5,26.8,30.08,NNW,331,2.0,2.0,46,0.00,,,0.00,Wunderground v.1.15,2013-10-21 17:38:00,
2013-10-21 11:43:00,46.4,25.1,30.08,NW,315,3.0,3.0,43,0.00,,,0.00,Wunderground v.1.15,2013-10-21 17:43:00,
2013-10-21 11:48:00,46.2,24.9,30.08,WNW,303,4.0,4.0,43,0.00,,,0.00,Wunderground v.1.15,2013-10-21 17:48:00,
2013-10-21 11:53:00,46.0,25.3,30.08,NNW,327,3.0,4.0,44,0.00,,,0.00,Wunderground v.1.15,2013-10-21 17:53:00,
2013-10-21 11:59:00,45.7,25.0,30.08,WNW,286,2.0,2.0,44,0.00,,,0.00,Wunderground v.1.15,2013-10-21 17:59:00,
2013-10-21 12:08:00,47.0,26.2,30.08,NNW,336,2.0,7.0,44,0.00,,,0.00,Wunderground v.1.15,2013-10-21 18:08:00,
2013-10-21 12:13:00,47.3,24.2,30.08,West,274,2.0,7.0,40,0.00,,,0.00,Wunderground v.1.15,2013-10-21 18:13:00,
2013-10-21 12:18:00,47.5,24.9,30.08,WNW,288,2.0,2.0,41,0.00,,,0.00,Wunderground v.1.15,2013-10-21 18:18:00,
2013-10-21 12:23:00,47.6,26.7,30.08,NNW,339,2.0,2.0,44,0.00,,,0.00,Wunderground v.1.15,2013-10-21 18:23:00,
2013-10-21 12:29:00,47.2,26.4,30.08,NW,305,1.0,2.0,44,0.00,,,0.00,Wunderground v.1.15,2013-10-21 18:29:00,
2013-10-21 12:38:00,46.9,27.2,30.07,WNW,291,3.0,3.0,46,0.00,,,0.00,Wunderground v.1.15,2013-10-21 18:38:00,
2013-10-21 12:43:00,47.1,26.3,30.07,NNW,327,2.0,4.0,44,0.00,,,0.00,Wunderground v.1.15,2013-10-21 18:43:00,
2013-10-21 12:48:00,47.7,25.7,30.07,NW,326,2.0,2.0,42,0.00,,,0.00,Wunderground v.1.15,2013-10-21 18:48:00,
2013-10-21 12:53:00,47.2,26.4,30.07,SSE,148,3.0,3.0,44,0.00,,,0.00,Wunderground v.1.15,2013-10-21 18:53:00,
2013-10-21 12:59:00,47.8,26.4,30.06,NNW,339,1.0,3.0,43,0.00,,,0.00,Wunderground v.1.15,2013-10-21 18:59:00,
2013-10-21 13:08:00,47.4,26.0,30.06,NNW,344,3.0,4.0,43,0.00,,,0.00,Wunderground v.1.15,2013-10-21 19:08:00,
2013-10-21 13:13:00,46.8,25.5,30.07,NW,320,3.0,4.0,43,0.00,,,0.00,Wunderground v.1.15,2013-10-21 19:13:00,
2013-10-21 13:18:00,47.1,27.9,30.06,NNW,337,3.0,3.0,47,0.00,,,0.00,Wunderground v.1.15,2013-10-21 19:18:00,
2013-10-21 13:24:00,48.1,26.1,30.06,WNW,303,2.0,3.0,42,0.00,,,0.00,Wunderground v.1.15,2013-10-21 19:24:00,
2013-10-21 13:29:00,48.4,25.8,30.06,NW,322,1.0,2.0,41,0.00,,,0.00,Wunderground v.1.15,2013-10-21 19:29:00,
2013-10-21 13:38:00,48.0,24.8,30.06,WNW,297,2.0,2.0,40,0.00,,,0.00,Wunderground v.1.15,2013-10-21 19:38:00,
2013-10-21 13:48:00,48.2,25.6,30.06,NW,317,4.0,4.0,41,0.00,,,0.00,Wunderground v.1.15,2013-10-21 19:48:00,
2013-10-21 13:53:00,48.5,26.4,30.06,NNW,327,3.0,4.0,42,0.00,,,0.00,Wunderground v.1.15,2013-10-21 19:53:00,
2013-10-21 13:59:00,48.5,27.0,30.05,WNW,294,2.0,2.0,43,0.00,,,0.00,Wunderground v.1.15,2013-10-21 19:59:00,
2013-10-21 14:08:00,48.3,26.2,30.05,NNW,337,2.0,2.0,42,0.00,,,0.00,Wunderground v.1.15,2013-10-21 20:08:00,
2013-10-21 14:13:00,48.4,25.2,30.05,North,355,2.0,2.0,40,0.00,,,0.00,Wunderground v.1.15,2013-10-21 20:13:00,
2013-10-21 14:23:00,48.1,24.3,30.05,WSW,253,1.0,4.0,39,0.00,,,0.00,Wunderground v.1.15,2013-10-21 20:23:00,
2013-10-21 14:28:00,48.3,25.7,30.05,NE,36,3.0,3.0,41,0.00,,,0.00,Wunderground v.1.15,2013-10-21 20:28:00,
2013-10-21 14:38:00,48.2,24.4,30.05,South,184,2.0,2.0,39,0.00,,,0.00,Wunderground v.1.15,2013-10-21 20:38:00,
2013-10-21 14:43:00,48.1,24.9,30.05,SE,136,0.0,2.0,40,0.00,,,0.00,Wunderground v.1.15,2013-10-21 20:43:00,
2013-10-21 14:48:00,48.8,25.5,30.05,NNW,340,0.0,3.0,40,0.00,,,0.00,Wunderground v.1.15,2013-10-21 20:48:00,
2013-10-21 14:59:00,48.9,24.4,30.05,NW,316,2.0,3.0,38,0.00,,,0.00,Wunderground v.1.15,2013-10-21 20:59:00,
2013-10-21 15:08:00,48.7,22.9,30.05,NNW,344,2.0,2.0,36,0.00,,,0.00,Wunderground v.1.15,2013-10-21 21:08:00,
2013-10-21 15:13:00,48.7,22.2,30.05,WNW,302,3.0,4.0,35,0.00,,,0.00,Wunderground v.1.15,2013-10-21 21:13:00,
2013-10-21 15:19:00,48.6,22.8,30.05,WNW,300,3.0,3.0,36,0.00,,,0.00,Wunderground v.1.15,2013-10-21 21:19:00,
2013-10-21 15:24:00,48.9,22.4,30.05,SSW,207,1.0,3.0,35,0.00,,,0.00,Wunderground v.1.15,2013-10-21 21:24:00,
2013-10-21 15:33:00,48.8,22.3,30.05,NW,304,1.0,1.0,35,0.00,,,0.00,Wunderground v.1.15,2013-10-21 21:33:00,
2013-10-21 15:38:00,48.8,23.6,30.05,South,187,2.0,2.0,37,0.00,,,0.00,Wunderground v.1.15,2013-10-21 21:38:00,
2013-10-21 15:43:00,48.9,23.1,30.06,NW,315,1.0,2.0,36,0.00,,,0.00,Wunderground v.1.15,2013-10-21 21:43:00,
2013-10-21 15:48:00,48.7,22.9,30.06,NNW,338,1.0,1.0,36,0.00,,,0.00,Wunderground v.1.15,2013-10-21 21:48:00,
2013-10-21 15:53:00,49.1,22.6,30.06,NNW,338,2.0,6.0,35,0.00,,,0.00,Wunderground v.1.15,2013-10-21 21:53:00,
2013-10-21 15:59:00,48.9,22.4,30.06,South,190,2.0,2.0,35,0.00,,,0.00,Wunderground v.1.15,2013-10-21 21:59:00,
2013-10-21 16:08:00,49.0,21.8,30.06,North,355,2.0,2.0,34,0.00,,,0.00,Wunderground v.1.15,2013-10-21 22:08:00,
2013-10-21 16:13:00,48.9,21.7,30.06,NNW,339,4.0,5.0,34,0.00,,,0.00,Wunderground v.1.15,2013-10-21 22:13:00,
2013-10-21 16:19:00,48.6,22.8,30.06,SW,229,3.0,3.0,36,0.00,,,0.00,Wunderground v.1.15,2013-10-21 22:19:00,
2013-10-21 16:24:00,48.3,21.2,30.06,NNW,333,1.0,3.0,34,0.00,,,0.00,Wunderground v.1.15,2013-10-21 22:24:00,
2013-10-21 16:33:00,47.2,23.5,30.06,WSW,242,1.0,3.0,39,0.00,,,0.00,Wunderground v.1.15,2013-10-21 22:33:00,
2013-10-21 16:38:00,46.8,21.9,30.07,SW,236,0.0,0.0,37,0.00,,,0.00,Wunderground v.1.15,2013-10-21 22:38:00,
2013-10-21 16:48:00,45.9,22.3,30.07,WNW,288,0.0,0.0,39,0.00,,,0.00,Wunderground v.1.15,2013-10-21 22:48:00,
2013-10-21 16:53:00,45.9,22.3,30.07,WNW,288,0.0,0.0,39,0.00,,,0.00,Wunderground v.1.15,2013-10-21 22:53:00,
2013-10-21 16:59:00,45.4,23.0,30.07,WNW,287,0.0,0.0,41,0.00,,,0.00,Wunderground v.1.15,2013-10-21 22:59:00,
2013-10-21 17:09:00,43.5,24.6,30.07,SW,229,0.0,0.0,47,0.00,,,0.00,Wunderground v.1.15,2013-10-21 23:09:00,
2013-10-21 17:19:00,42.6,25.2,30.07,SW,229,0.0,0.0,50,0.00,,,0.00,Wunderground v.1.15,2013-10-21 23:19:00,
2013-10-21 17:24:00,42.2,24.9,30.07,SW,229,0.0,0.0,50,0.00,,,0.00,Wunderground v.1.15,2013-10-21 23:24:00,
2013-10-21 17:29:00,41.7,25.4,30.08,SW,229,0.0,0.0,52,0.00,,,0.00,Wunderground v.1.15,2013-10-21 23:29:00,
2013-10-21 17:39:00,40.9,26.0,30.08,SW,229,0.0,0.0,55,0.00,,,0.00,Wunderground v.1.15,2013-10-21 23:39:00,
2013-10-21 17:44:00,40.2,27.0,30.08,SW,229,0.0,0.0,59,0.00,,,0.00,Wunderground v.1.15,2013-10-21 23:44:00,
2013-10-21 17:49:00,39.6,28.0,30.08,SW,229,0.0,0.0,63,0.00,,,0.00,Wunderground v.1.15,2013-10-21 23:49:00,
2013-10-21 17:59:00,38.4,28.0,30.08,SW,229,0.0,0.0,66,0.00,,,0.00,Wunderground v.1.15,2013-10-21 23:59:00,
2013-10-21 18:09:00,37.8,28.2,30.08,SW,229,0.0,0.0,68,0.00,,,0.00,Wunderground v.1.15,2013-10-22 00:09:00,
2013-10-21 18:14:00,37.3,27.7,30.08,SW,229,0.0,0.0,68,0.00,,,0.00,Wunderground v.1.15,2013-10-22 00:14:00,
2013-10-21 18:23:00,36.8,27.2,30.09,SW,229,0.0,0.0,68,0.00,,,0.00,Wunderground v.1.15,2013-10-22 00:23:00,
2013-10-21 18:33:00,36.2,27.0,30.10,SW,229,0.0,0.0,69,0.00,,,0.00,Wunderground v.1.15,2013-10-22 00:33:00,
2013-10-21 18:39:00,36.0,26.8,30.10,SW,229,0.0,0.0,69,0.00,,,0.00,Wunderground v.1.15,2013-10-22 00:39:00,
2013-10-21 18:44:00,35.7,26.2,30.10,SW,229,0.0,0.0,68,0.00,,,0.00,Wunderground v.1.15,2013-10-22 00:44:00,
2013-10-21 18:49:00,35.5,26.7,30.11,SW,229,0.0,0.0,70,0.00,,,0.00,Wunderground v.1.15,2013-10-22 00:49:00,
2013-10-21 18:54:00,35.2,26.4,30.11,SW,229,0.0,0.0,70,0.00,,,0.00,Wunderground v.1.15,2013-10-22 00:54:00,
2013-10-21 18:59:00,34.9,26.1,30.12,SW,229,0.0,0.0,70,0.00,,,0.00,Wunderground v.1.15,2013-10-22 00:59:00,
2013-10-21 19:08:00,34.4,26.3,30.12,SW,229,0.0,0.0,72,0.00,,,0.00,Wunderground v.1.15,2013-10-22 01:08:00,
2013-10-21 19:13:00,34.3,26.2,30.12,SW,229,0.0,0.0,72,0.00,,,0.00,Wunderground v.1.15,2013-10-22 01:13:00,
2013-10-21 19:18:00,34.2,25.8,30.12,SW,229,0.0,0.0,71,0.00,,,0.00,Wunderground v.1.15,2013-10-22 01:18:00,
2013-10-21 19:23:00,34.2,25.4,30.12,SW,229,0.0,0.0,70,0.00,,,0.00,Wunderground v.1.15,2013-10-22 01:23:00,
2013-10-21 19:28:00,34.1,25.7,30.12,SW,229,0.0,0.0,71,0.00,,,0.00,Wunderground v.1.15,2013-10-22 01:28:00,
2013-10-21 19:38:00,33.9,24.8,30.13,SW,229,0.0,0.0,69,0.00,,,0.00,Wunderground v.1.15,2013-10-22 01:38:00,
2013-10-21 19:44:00,33.8,24.4,30.13,SW,229,0.0,0.0,68,0.00,,,0.00,Wunderground v.1.15,2013-10-22 01:44:00,
2013-10-21 19:53:00,33.4,24.7,30.14,SW,229,0.0,0.0,70,0.00,,,0.00,Wunderground v.1.15,2013-10-22 01:53:00,
2013-10-21 19:59:00,33.4,24.3,30.14,SW,229,0.0,0.0,69,0.00,,,0.00,Wunderground v.1.15,2013-10-22 01:59:00,
2013-10-21 20:08:00,33.0,24.3,30.14,SW,229,0.0,0.0,70,0.00,,,0.00,Wunderground v.1.15,2013-10-22 02:08:00,
2013-10-21 20:14:00,32.8,24.1,30.15,SW,229,0.0,0.0,70,0.00,,,0.00,Wunderground v.1.15,2013-10-22 02:14:00,
2013-10-21 20:23:00,32.4,23.7,30.15,SW,229,0.0,0.0,70,0.00,,,0.00,Wunderground v.1.15,2013-10-22 02:23:00,
2013-10-21 20:29:00,32.2,23.8,30.15,SW,229,0.0,0.0,71,0.00,,,0.00,Wunderground v.1.15,2013-10-22 02:29:00,
2013-10-21 20:38:00,32.0,23.7,30.15,SW,229,0.0,0.0,71,0.00,,,0.00,Wunderground v.1.15,2013-10-22 02:38:00,
2013-10-21 20:43:00,31.6,23.6,30.15,SW,229,0.0,0.0,72,0.00,,,0.00,Wunderground v.1.15,2013-10-22 02:43:00,
2013-10-21 20:48:00,31.3,23.6,30.16,SW,229,0.0,0.0,73,0.00,,,0.00,Wunderground v.1.15,2013-10-22 02:48:00,
2013-10-21 20:53:00,30.9,23.6,30.16,SW,229,0.0,0.0,74,0.00,,,0.00,Wunderground v.1.15,2013-10-22 02:53:00,
2013-10-21 20:59:00,30.7,23.7,30.16,SW,229,0.0,0.0,75,0.00,,,0.00,Wunderground v.1.15,2013-10-22 02:59:00,
2013-10-21 21:09:00,30.4,23.4,30.16,SW,229,0.0,0.0,75,0.00,,,0.00,Wunderground v.1.15,2013-10-22 03:09:00,
2013-10-21 21:14:00,30.2,23.2,30.17,SW,229,0.0,0.0,75,0.00,,,0.00,Wunderground v.1.15,2013-10-22 03:14:00,
2013-10-21 21:19:00,30.1,23.1,30.17,SW,229,0.0,0.0,75,0.00,,,0.00,Wunderground v.1.15,2013-10-22 03:19:00,
2013-10-21 21:29:00,29.8,22.8,30.17,SW,229,0.0,0.0,75,0.00,,,0.00,Wunderground v.1.15,2013-10-22 03:29:00,
2013-10-21 21:39:00,29.7,23.1,30.17,SW,229,0.0,0.0,76,0.00,,,0.00,Wunderground v.1.15,2013-10-22 03:39:00,
2013-10-21 21:44:00,29.7,23.1,30.17,SW,229,0.0,0.0,76,0.00,,,0.00,Wunderground v.1.15,2013-10-22 03:44:00,
2013-10-21 21:49:00,29.6,23.0,30.17,SW,229,0.0,0.0,76,0.00,,,0.00,Wunderground v.1.15,2013-10-22 03:49:00,
2013-10-21 21:54:00,29.5,23.2,30.18,SW,229,0.0,0.0,77,0.00,,,0.00,Wunderground v.1.15,2013-10-22 03:54:00,
2013-10-21 21:59:00,29.4,23.1,30.18,SW,229,0.0,0.0,77,0.00,,,0.00,Wunderground v.1.15,2013-10-22 03:59:00,
2013-10-21 22:04:00,29.3,23.0,30.18,SW,229,0.0,0.0,77,0.00,,,0.00,Wunderground v.1.15,2013-10-22 04:04:00,
2013-10-21 22:09:00,29.2,22.9,30.18,SW,229,0.0,0.0,77,0.00,,,0.00,Wunderground v.1.15,2013-10-22 04:09:00,
2013-10-21 22:14:00,29.2,22.9,30.19,SW,229,0.0,0.0,77,0.00,,,0.00,Wunderground v.1.15,2013-10-22 04:14:00,
2013-10-21 22:23:00,29.1,22.8,30.19,SW,229,0.0,0.0,77,0.00,,,0.00,Wunderground v.1.15,2013-10-22 04:23:00,
2013-10-21 22:28:00,29.2,22.9,30.19,SW,229,0.0,0.0,77,0.00,,,0.00,Wunderground v.1.15,2013-10-22 04:28:00,
2013-10-21 22:34:00,29.2,22.9,30.19,SW,229,0.0,0.0,77,0.00,,,0.00,Wunderground v.1.15,2013-10-22 04:34:00,
2013-10-21 22:44:00,29.3,22.7,30.20,SW,229,0.0,0.0,76,0.00,,,0.00,Wunderground v.1.15,2013-10-22 04:44:00,
2013-10-21 22:49:00,29.2,22.9,30.20,SW,229,0.0,0.0,77,0.00,,,0.00,Wunderground v.1.15,2013-10-22 04:49:00,
2013-10-21 22:59:00,29.1,22.8,30.20,SW,229,0.0,0.0,77,0.00,,,0.00,Wunderground v.1.15,2013-10-22 04:59:00,
2013-10-21 23:08:00,28.9,22.6,30.21,SW,229,0.0,0.0,77,0.00,,,0.00,Wunderground v.1.15,2013-10-22 05:08:00,
2013-10-21 23:14:00,28.9,22.6,30.21,SW,229,0.0,0.0,77,0.00,,,0.00,Wunderground v.1.15,2013-10-22 05:14:00,
2013-10-21 23:24:00,28.8,22.5,30.22,SW,229,0.0,0.0,77,0.00,,,0.00,Wunderground v.1.15,2013-10-22 05:24:00,
2013-10-21 23:29:00,28.7,22.4,30.22,SW,229,0.0,0.0,77,0.00,,,0.00,Wunderground v.1.15,2013-10-22 05:29:00,
2013-10-21 23:38:00,28.5,22.5,30.22,SW,229,0.0,0.0,78,0.00,,,0.00,Wunderground v.1.15,2013-10-22 05:38:00,
2013-10-21 23:43:00,28.5,22.5,30.22,SW,229,0.0,0.0,78,0.00,,,0.00,Wunderground v.1.15,2013-10-22 05:43:00,
2013-10-21 23:49:00,28.3,22.6,30.22,SW,229,0.0,0.0,79,0.00,,,0.00,Wunderground v.1.15,2013-10-22 05:49:00,
2013-10-21 23:59:00,28.2,22.5,30.22,SW,229,0.0,0.0,79,0.00,,,0.00,Wunderground v.1.15,2013-10-22 05:59:00,